Regional Weather Roundup
Issued by NWS Lake Charles, LA

Home | Current Version | Previous Version | Text Only | Print | Product List | Glossary On
Versions: 1 2 3 4 5 6 7 8 9 10 11 12 13 14 15 16 17 18 19 20 21 22 23 24 25 26 27 28
000
ASUS44 KLCH 251010
RWRLCH
REGIONAL WEATHER ROUNDUP
NATIONAL WEATHER SERVICE LAKE CHARLES LA
400 AM CST SUN FEB 25 2018

Note: "fair" indicates few or no clouds below 12,000 feet with no
significant weather and/or obstructions to visibility.


ACROSS SOUTHEAST TEXAS

CITY           SKY/WX    TMP DP  RH WIND       PRES   REMARKS
BEAUMONT       CLOUDY    71  69  93 S9        29.94R
BEAUMONT CITY  HVY RAIN  64  60  86 N26G32    29.96R
ORANGE         CLOUDY    72  72  99 SW9       29.96S
JASPER         LGT RAIN  54  52  93 NE7       30.03S
$$

ACROSS CENTRAL LOUISIANA

CITY           SKY/WX    TMP DP  RH WIND       PRES   REMARKS
LEESVILLE      RAIN      52  50  93 NE7       30.01F FOG
FULLERTON      RAIN      51  50  96 NE5       30.01R FOG
ALEXANDRIA INT RAIN      52  51  97 N6        30.04R FOG
ESLER FIELD    HVY RAIN  52  52 100 N8        30.06R FOG
DERIDDER       HVY RAIN  53  51  95 NE8       30.03S
OAKDALE        HVY RAIN  56  54  92 N10G17    30.02R
OPELOUSAS      LGT RAIN  58  55  91 N17G30    30.00R
$$

ACROSS SOUTHWEST AND SOUTH CENTRAL LOUISIANA

CITY           SKY/WX    TMP DP  RH WIND       PRES   REMARKS
SULPHUR        CLOUDY    73  71  93 S10       29.96S
LAKE CHARLES   CLOUDY    73  71  93 S8G17     29.96R
CHENNAULT INT  CLOUDY   N/A N/A N/A SW6       29.97R
CAMERON PHI    CLOUDY    70  70 100 S13       29.95F FOG
DEQUINCY       NOT AVBL
JENNINGS       CLOUDY    72  69  90 SW8       29.98R
LAFAYETTE      CLOUDY    72  70  93 S10       29.97S
NEW IBERIA     CLOUDY    73  68  84 S9        29.97F
ABBEVILLE      CLOUDY    71  71 100 S9        29.97S
PATTERSON      FAIR      70  69  97 S7        29.98F
SALT POINT       N/A     69  67  93 VRB3      29.96S
$$

SELECTED SITES ACROSS THE REGION

CITY           SKY/WX    TMP DP  RH WIND       PRES   REMARKS
HOUSTON BUSH   TSTM      57  55  93 NE10      29.96F
HOUSTON HOBBY  LGT RAIN  72  72 100 S8        29.92S
GALVESTON      CLOUDY    72  71  97 S6        29.94S FOG
COLLEGE STAT   CLOUDY    60  50  69 NE7       29.96R
CONROE         LGT RAIN  58  55  90 NE7       29.97R
HUNTSVILLE     CLOUDY    59  50  72 E9        29.99R
LUFKIN         CLOUDY    57  52  83 E7        30.00R
SHREVEPORT     CLOUDY    56  55  97 NE5       30.01R
MONROE         CLOUDY    55  54  96 SE3       30.06R
NATCHEZ MS     HVY RAIN  53  51  93 NE10G22   30.07R
BATON ROUGE    MOCLDY    72  67  84 S9G20     29.98R
N.O. INTL ARPT FAIR      72  71  97 S8        29.98F
SLIDELL        CLOUDY    71  69  93 S6        29.99S
$$

MARINE REPORTS

STATION/POSITION TIME  SKY/WX   TEMP    WIND        PRES    VSBY
                                AIR SEA DIR/SP/G
                 (UTC)          (F)     (DEG/KT/KT) (MB)    (MI)
BUOY 30 S HIGH I 0850            67 65  200/  4/  6 1013.9
WVE H/P(F/S)=  4/ 7

SEA RIM ST PARK  1000            69     200/  7/  9 1014.6R
PORT ARTHUR      0942            70 69  190/  9/ 14 1013.9F
SABINE PASS N    0942            70 74  180/  8/ 12 1015.2F
TEXAS POINT      NOT AVBL
CALCASIEU PASS   0948            70 71  200/ 13/ 16 1012.9F
LK CHARLES BEACH 0942            73 71              1014.3R
MARSH ISLAND     0900            73                   N/A
FRESH WATER LOCK 0948            72 75  160/ 10/ 14 1014.6F
AMERADA PASS     0948            71 58  150/  6/ 10 1015.0F
$$




USA.gov is the U.S. government's official web portal to all federal, state and local government web resources and services.